Weather History for Carrollton, GA

Change the Weather History Date:

Saturday, November 3, 2012

  Actual Average Record
Temperature  
Mean Temperature 61 °F -  
Max Temperature 80 °F 69 °F 84 °F (1974)
Min Temperature 42 °F 44 °F 20 °F (1954)
Degree Days  
Heating Degree Days 4    
Growing Degree Days 11 (Base 50)    
Moisture  
Dew Point 48 °F    
Average Humidity 68    
Maximum Humidity 100    
Minimum Humidity 32    
Precipitation  
Precipitation 0.00 in - - ()
Sea Level Pressure  
Sea Level Pressure 30.06 in    
Wind  
Wind Speed 1 mph (West)    
Max Wind Speed 9 mph    
Max Gust Speed -    
Visibility 10 miles    
Events      
Averages and records for this station are not official NWS values.
T = Trace of Precipitation, MM = Missing Value Source: NWS Daily Summary

Daily Weather History Graph

Daily Weather History Graph

Search for Another Location

Airport:

Trip Planner

Search our weather history database for the weather conditions in past years. The results will help you decide how hot, cold, wet, or windy it might be!

Date:

Astronomy

Nov. 03, 2012 Rise Set
Actual Time 8:01 AM EDT 6:46 PM EDT
Civil Twilight 7:35 AM EDT 7:11 PM EDT
Nautical Twilight 7:06 AM EDT 7:41 PM EDT
Astronomical Twilight 6:37 AM EDT 8:10 PM EDT
Moon 10:30 PM EDT (11/3) 12:00 PM EDT (11/3)
Length of Visible Light 11h 36m
Length of Day
10h 44m
Waning Gibbous, 80% of the Moon is Illuminated
Nov 3
Waning Gibbous
Nov 6
Last Quarter
Nov 13
New
Nov 20
First Quarter
Nov 28
Full

Hourly Weather History & Observations

Time (EDT) Temp. Dew Point Humidity Pressure Visibility Wind Dir Wind Speed Gust Speed Precip Events Conditions
12:15 AM 50.0 °F 46.4 °F 87% 30.05 in 10.0 mi Calm Calm - N/A   Clear
12:35 AM 50.0 °F 44.6 °F 82% 30.04 in 10.0 mi Calm Calm - N/A   Clear
12:55 AM 51.8 °F 46.4 °F 82% 30.04 in 10.0 mi Calm Calm - N/A   Clear
1:15 AM 50.0 °F 44.6 °F 82% 30.04 in 10.0 mi Calm Calm - N/A   Clear
1:35 AM 50.0 °F 46.4 °F 87% 30.05 in 10.0 mi Calm Calm - N/A   Clear
1:55 AM 48.2 °F 46.4 °F 93% 30.05 in 10.0 mi Calm Calm - N/A   Clear
2:15 AM 50.0 °F 44.6 °F 82% 30.04 in 10.0 mi Calm Calm - N/A   Clear
2:35 AM 46.4 °F 44.6 °F 93% 30.04 in 10.0 mi Calm Calm - N/A   Clear
2:55 AM 44.6 °F 42.8 °F 93% 30.05 in 10.0 mi Calm Calm - N/A   Clear
3:15 AM 46.4 °F 44.6 °F 93% 30.05 in 10.0 mi Calm Calm - N/A   Clear
3:35 AM 44.6 °F 42.8 °F 93% 30.05 in 10.0 mi Calm Calm - N/A   Clear
3:55 AM 44.6 °F 44.6 °F 100% 30.05 in 10.0 mi Calm Calm - N/A   Clear
4:15 AM 44.6 °F 44.6 °F 100% 30.05 in 10.0 mi Calm Calm - N/A   Clear
4:35 AM 44.6 °F 42.8 °F 93% 30.05 in 10.0 mi Calm Calm - N/A   Clear
4:55 AM 42.8 °F 42.8 °F 100% 30.05 in 10.0 mi Calm Calm - N/A   Clear
5:15 AM 44.6 °F 42.8 °F 93% 30.05 in 10.0 mi Calm Calm - N/A   Clear
5:35 AM 44.6 °F 42.8 °F 93% 30.05 in 10.0 mi Calm Calm - N/A   Clear
5:55 AM 44.6 °F 44.6 °F 100% 30.06 in 10.0 mi Calm Calm - N/A   Clear
6:15 AM 44.6 °F 44.6 °F 100% 30.07 in 10.0 mi Calm Calm - N/A   Clear
6:35 AM 44.6 °F 42.8 °F 93% 30.07 in 10.0 mi Calm Calm - N/A   Clear
6:55 AM 44.6 °F 44.6 °F 100% 30.08 in 10.0 mi Calm Calm - N/A   Clear
7:15 AM 44.6 °F 42.8 °F 93% 30.08 in 10.0 mi Calm Calm - N/A   Clear
7:35 AM 44.6 °F 42.8 °F 93% 30.08 in 10.0 mi Calm Calm - N/A   Clear
7:55 AM 44.6 °F 42.8 °F 93% 30.09 in 10.0 mi Calm Calm - N/A   Clear
8:15 AM 42.8 °F 42.8 °F 100% 30.10 in 10.0 mi Calm Calm - N/A   Clear
8:35 AM 44.6 °F 42.8 °F 93% 30.10 in 10.0 mi Calm Calm - N/A   Clear
8:55 AM 46.4 °F 44.6 °F 93% 30.11 in 10.0 mi Calm Calm - N/A   Clear
9:15 AM 50.0 °F 46.4 °F 87% 30.12 in 10.0 mi Calm Calm - N/A   Clear
9:35 AM 51.8 °F 46.4 °F 82% 30.13 in 10.0 mi Calm Calm - N/A   Clear
9:55 AM 55.4 °F 46.4 °F 72% 30.13 in 10.0 mi Calm Calm - N/A   Clear
10:15 AM 57.2 °F 44.6 °F 63% 30.13 in 10.0 mi Calm Calm - N/A   Clear
10:35 AM 60.8 °F 42.8 °F 52% 30.14 in 10.0 mi Calm Calm - N/A   Clear
10:55 AM 62.6 °F 44.6 °F 52% 30.13 in 10.0 mi Calm Calm - N/A   Clear
11:15 AM 64.4 °F 44.6 °F 49% 30.13 in 10.0 mi South 3.5 mph - N/A   Clear
11:35 AM 68.0 °F 46.4 °F 46% 30.13 in 10.0 mi Calm Calm - N/A   Clear
11:55 AM 69.8 °F 46.4 °F 43% 30.12 in 10.0 mi South 3.5 mph - N/A   Clear
12:15 PM 73.4 °F 48.2 °F 41% 30.12 in 10.0 mi SW 3.5 mph - N/A   Clear
12:35 PM 73.4 °F 50.0 °F 44% 30.11 in 10.0 mi SSW 3.5 mph - N/A   Clear
12:55 PM 75.2 °F 50.0 °F 41% 30.11 in 10.0 mi Calm Calm - N/A   Clear
1:15 PM 77.0 °F 55.4 °F 47% 30.10 in 10.0 mi WNW 6.9 mph - N/A   Clear
1:35 PM 78.8 °F 55.4 °F 44% 30.09 in 10.0 mi West 6.9 mph - N/A   Clear
1:55 PM 78.8 °F 53.6 °F 42% 30.08 in 10.0 mi West 6.9 mph - N/A   Clear
2:15 PM 78.8 °F 53.6 °F 42% 30.07 in 10.0 mi WNW 6.9 mph - N/A   Clear
2:35 PM 78.8 °F 53.6 °F 42% 30.06 in 10.0 mi NW 9.2 mph - N/A   Clear
2:55 PM 78.8 °F 53.6 °F 42% 30.05 in 10.0 mi West 5.8 mph - N/A   Clear
3:15 PM 78.8 °F 53.6 °F 42% 30.04 in 10.0 mi West 5.8 mph - N/A   Clear
3:35 PM 78.8 °F 51.8 °F 39% 30.05 in 10.0 mi WNW 8.1 mph - N/A   Clear
3:55 PM 80.6 °F 51.8 °F 37% 30.04 in 10.0 mi NW 6.9 mph - N/A   Clear
4:15 PM 80.6 °F 51.8 °F 37% 30.03 in 10.0 mi West 4.6 mph - N/A   Clear
4:35 PM 80.6 °F 48.2 °F 32% 30.03 in 10.0 mi WNW 3.5 mph - N/A   Clear
4:55 PM 80.6 °F 50.0 °F 34% 30.03 in 10.0 mi WSW 4.6 mph - N/A   Clear
5:15 PM 78.8 °F 50.0 °F 36% 30.03 in 10.0 mi West 5.8 mph - N/A   Clear
5:35 PM 78.8 °F 50.0 °F 36% 30.03 in 10.0 mi West 6.9 mph - N/A   Clear
5:55 PM 78.8 °F 50.0 °F 36% 30.03 in 10.0 mi Calm Calm - N/A   Clear
6:15 PM 77.0 °F 50.0 °F 39% 30.03 in 10.0 mi WSW 3.5 mph - N/A   Clear
6:35 PM 75.2 °F 50.0 °F 41% 30.03 in 10.0 mi Calm Calm - N/A   Clear
6:55 PM 73.4 °F 51.8 °F 47% 30.03 in 10.0 mi Calm Calm - N/A   Clear
7:15 PM 69.8 °F 51.8 °F 53% 30.03 in 10.0 mi Calm Calm - N/A   Clear
7:35 PM 66.2 °F 53.6 °F 64% 30.03 in 10.0 mi Calm Calm - N/A   Clear
7:55 PM 64.4 °F 53.6 °F 68% 30.03 in 10.0 mi Calm Calm - N/A   Clear
8:15 PM 62.6 °F 53.6 °F 72% 30.03 in 10.0 mi Calm Calm - N/A   Clear
8:35 PM 62.6 °F 53.6 °F 72% 30.03 in 10.0 mi Calm Calm - N/A   Clear
9:15 PM 62.6 °F 53.6 °F 72% 30.04 in 10.0 mi Calm Calm - N/A   Clear
9:35 PM 64.4 °F 53.6 °F 68% 30.04 in 10.0 mi Calm Calm - N/A   Clear
9:55 PM 64.4 °F 53.6 °F 68% 30.05 in 10.0 mi Calm Calm - N/A   Clear
10:15 PM 62.6 °F 53.6 °F 72% 30.05 in 10.0 mi Calm Calm - N/A   Clear
10:35 PM 62.6 °F 53.6 °F 72% 30.05 in 10.0 mi Calm Calm - N/A   Clear
10:55 PM 62.6 °F 53.6 °F 72% 30.05 in 10.0 mi Calm Calm - N/A   Clear
11:15 PM 64.4 °F 53.6 °F 68% 30.05 in 10.0 mi Calm Calm - N/A   Clear
11:35 PM 64.4 °F 53.6 °F 68% 30.05 in 10.0 mi WSW 3.5 mph - N/A   Clear
11:55 PM 64.4 °F 53.6 °F 68% 30.05 in 10.0 mi WSW 3.5 mph - N/A   Clear